Content
SEND FEEDBACK

Daily
Averages
Monthly
Summary
United States of America

CHELSEA, MICHIGAN


Home > North America > United States > Michigan
Elevation: 900 feet     Latitude: 42 19N     Longitude: 084 01W

WEATHER
 
SELECT A DAY
Number of Records: 207,968;   Date Range: 1/1/95 - 11/21/14
 
SHARE

PRINT THIS DATA

[ ← Previous Day ]
WEATHER ALMANAC - JANUARY 18, 2013
[ Next Day → ]
[ °C ]   °F
Weather ElementAverageHighLow
Temperature26.5 °F34 °F (2:53 pm)15.1 °F (7:53 am)
Dewpoint14.4 °F21.9 °F (11:53 pm)6.1 °F (4:53 am)
Humidity60.5 %77 % (7:53 am)46 % (2:53 pm)
Barometer30.27 in30.45 in (6:53 am)30.00 in (11:53 pm)
Wind Speed10.6 mph20.7 mph (7:53 pm)
Wind Gust28.8 mph (4:53 pm)
Weather ElementAverage
Visibility10 mi
Wind DirectionSSW (194.8 °)

Weather ElementTotal
Precipitation---
Heating Degree Days40.5 (Base 65)
Averaged from 23 records on January 18, 2013
WEATHER CONDITIONS BREAKOUT
WIND DIRECTION BREAKOUT
WEATHER BY HOUR - JANUARY 18, 2013
[ °C ]   °F
Local TimeTemperatureDewpointHumidityBarometerVisibilityWind DirectionWind SpeedGust SpeedPrecipitationEventsConditions
1:53 AM19.9 °F8.1 °F60 %30.38 in10.0 miNW (310°)6.9 mphOvercast
2:53 AM19.9 °F9.0 °F62 %30.41 in10.0 miNNW (330°)3.5 mphOvercast
3:53 AM19.0 °F9.0 °F65 %30.42 in10.0 miCalmMostly Cloudy
4:53 AM17.1 °F6.1 °F62 %30.42 in10.0 miWNW (290°)4.6 mphMostly Cloudy
5:53 AM16.0 °F7.0 °F68 %30.44 in10.0 miWest (280°)3.5 mphMostly Cloudy
6:53 AM17.1 °F9.0 °F71 %30.45 in10.0 miCalmOvercast
7:53 AM15.1 °F9.0 °F77 %30.45 in10.0 miCalmMostly Cloudy
8:53 AM19.0 °F8.1 °F62 %30.44 in10.0 miSouth (190°)3.5 mphMostly Cloudy
9:53 AM21.0 °F9.0 °F60 %30.44 in10.0 miSouth (180°)6.9 mphMostly Cloudy
10:53 AM25.0 °F14.0 °F63 %30.43 in10.0 miSouth (190°)9.2 mphMostly Cloudy
11:53 AM27.0 °F17.1 °F66 %30.39 in10.0 miSSW (200°)10.4 mphOvercast
12:53 PM28.9 °F15.1 °F56 %30.33 in10.0 miSW (230°)13.8 mphOvercast
1:53 PM30.9 °F15.1 °F52 %30.27 in10.0 miSSW (200°)16.1 mph21.9 mphPartly Cloudy
2:53 PM34.0 °F15.1 °F46 %30.22 in10.0 miSSW (200°)19.6 mph25.3 mphScattered Clouds
3:53 PM33.1 °F18.0 °F54 %30.19 in10.0 miSSW (200°)18.4 mph27.6 mphClear
4:53 PM33.1 °F19.0 °F56 %30.16 in10.0 miSSW (200°)17.3 mph28.8 mphPartly Cloudy
5:53 PM33.1 °F21.0 °F61 %30.13 in10.0 miSSW (200°)17.3 mph25.3 mphClear
6:53 PM33.1 °F19.9 °F59 %30.10 in10.0 miSSW (200°)17.3 mph25.3 mphScattered Clouds
7:53 PM33.1 °F19.0 °F56 %30.07 in10.0 miSSW (210°)20.7 mph28.8 mphClear
8:53 PM33.1 °F19.9 °F59 %30.06 in10.0 miSW (220°)15.0 mph23.0 mphClear
9:53 PM34.0 °F19.9 °F56 %30.05 in10.0 miSW (220°)16.1 mph24.2 mphClear
10:53 PM34.0 °F21.0 °F59 %30.02 in10.0 miSW (220°)12.7 mphClear
11:53 PM34.0 °F21.9 °F61 %30.00 in10.0 miSSW (210°)11.5 mphClear
Hourly data recorded from KARB, located miles away from Chelsea, Michigan







STORIES FROM OUR PARTNERS